This is the latest recevied weather packets stored in our database for station/object N3LF. If no packets are shown the sender has not sent any weather packets the latest 10 day(s).
| Time | Temp. | Humidity | Pressure | Rain* | Wind** | Luminosity | Snow |
|---|---|---|---|---|---|---|---|
| 1777814535 | 7.78° C | 99% | 1024.5 hPa | 0 mm | - | 276 W/m² | - |
| 1777814233 | 7.78° C | 99% | 1024.5 hPa | 0 mm | - | 258 W/m² | - |
| 1777813929 | 7.78° C | 99% | 1024.7 hPa | 0 mm | - | 237 W/m² | - |
| 1777813627 | 7.22° C | 99% | 1024.5 hPa | 0 mm | - | 218 W/m² | - |
| 1777813324 | 7.22° C | 99% | 1024.5 hPa | 0 mm | - | 200 W/m² | - |
| 1777813021 | 6.67° C | 99% | 1024.5 hPa | 0 mm | - | 181 W/m² | - |
| 1777812719 | 6.11° C | 99% | 1024.6 hPa | 0 mm | - | 163 W/m² | - |
| 1777812415 | 6.11° C | 99% | 1024.5 hPa | 0 mm | - | 145 W/m² | - |
| 1777812114 | 5.56° C | 99% | 1024.6 hPa | 0 mm | - | 133 W/m² | - |
| 1777811812 | 5.56° C | 99% | 1024.5 hPa | 0 mm | - | 120 W/m² | - |
| 1777811509 | 5° C | 99% | 1024.6 hPa | 0 mm | - | 107 W/m² | - |
| 1777811204 | 5° C | 99% | 1024.5 hPa | 0 mm | - | 96 W/m² | - |
| 1777810902 | 4.44° C | 99% | 1024.6 hPa | 0 mm | - | 87 W/m² | - |
| 1777810598 | 4.44° C | 99% | 1024.4 hPa | 0 mm | - | 77 W/m² | - |
| 1777810296 | 4.44° C | 99% | 1024.4 hPa | 0 mm | - | 70 W/m² | - |
| 1777809991 | 4.44° C | 99% | 1024.5 hPa | 0 mm | - | 64 W/m² | - |
| 1777809690 | 3.89° C | 99% | 1024.4 hPa | 0 mm | - | 58 W/m² | - |
| 1777809387 | 3.89° C | 99% | 1024.3 hPa | 0 mm | - | 54 W/m² | - |
| 1777809084 | 3.33° C | 99% | 1024.2 hPa | 0 mm | - | 47 W/m² | - |
| 1777808782 | 3.33° C | 99% | 1024.1 hPa | 0 mm | - | 42 W/m² | - |
| 1777808478 | 2.78° C | 99% | 1024 hPa | 0 mm | - | 36 W/m² | - |
| 1777808176 | 2.78° C | 99% | 1024 hPa | 0 mm | - | 28 W/m² | - |
| 1777807874 | 2.78° C | 99% | 1023.9 hPa | 0 mm | - | 24 W/m² | - |
| 1777807572 | 2.78° C | 99% | 1023.9 hPa | 0 mm | - | 20 W/m² | - |
| 1777807269 | 2.78° C | 99% | 1023.7 hPa | 0 mm | - | 17 W/m² | - |
* Rain latest hour (hover to see other rain measurements)
** Current wind speed in m/s (hover to see current wind gust speed)